Preview of NWS' New Version of Forecast
This preview is not operational and should not be used for support decisions.

Regional Weather Roundup (RWR)

Issued by National Weather Service (NWS)

                            
000
ASUS42 KTBW 182217
RWRFL 
FLORIDA REGIONAL WEATHER ROUNDUP
NATIONAL WEATHER SERVICE TAMPA BAY RUSKIN FL
500 PM EST MON FEB 18 2019

NOTE: "FAIR" INDICATES FEW OR NO CLOUDS BELOW 12,000 FEET WITH NO
SIGNIFICANT WEATHER AND/OR OBSTRUCTIONS TO VISIBILITY.

FLZ001>010-012>015-112-114-115-182300-
PANHANDLE FLORIDA
  
CITY           SKY/WX    TMP DP  RH WIND       PRES   REMARKS
PENSACOLA      CLOUDY    57  42  57 NE9G17    30.15R                  
PENSACOLA NAS  CLOUDY    58  44  60 NE13      30.14R                  
MILTON NAS     CLOUDY    55  45  68 NE5       30.16                   
CRESTVIEW      CLOUDY    56  46  69 NE6       30.18R                  
DUKE FIELD     CLOUDY    55  45  67 N12G20    30.15R                  
VALPARAISO     CLOUDY    57  46  67 NE12      30.14R                  
MARY ESTHER    LGT RAIN  56  47  72 NE14      30.14                   
PANAMA CITY    CLOUDY    60  46  59 MISG      30.14R                  
TYNDALL AFB    CLOUDY    62  52  68 NE15G26   30.12R                  
APALACHICOLA   CLOUDY    65  56  72 NE13      30.10R HAZE             

STATION/POSITION SKY/WX   TEMP    WIND        PRES    WAVE   SWELL
                          AIR SEA DIR/SP/G            HT/PER HT/PER
                          (F)     (DEG/KT/KT) (MB)    (FT/S) (FT/S)
30.1N   87.6W              59      30/ 21/ 25 1020.6
29.2N   88.2W                      50/ 21/ 27 1019.5
PANAMA CITY BEAC           60 62   30/ 16/ 20 1020.3R
TOWER C                    64      50/ 20/ 21 1019.2R

$$
FLZ011-016>038-118-127-128-134-139-239-182300-
NORTH FLORIDA
  
CITY           SKY/WX    TMP DP  RH WIND       PRES   REMARKS
MARIANNA       CLOUDY    58  46  64 NE10      30.17R                  
TALLAHASSEE    CLOUDY    62  53  72 N7        30.15R                  
PERRY          CLOUDY    68  60  76 NE12      30.14R                  
LIVE OAK       CLOUDY    66  59  77 N9        30.14R                  
CROSS CITY     CLOUDY    73  69  85 N7        30.11R                  
LAKE CITY      CLOUDY    68  59  73 N8        30.14R                  
GAINESVILLE    CLOUDY    84  68  58 W13       30.11R                  
WILLISTON        N/A    N/A N/A N/A MISG        N/A                   
PALATKA        FAIR      77  64  65 NE16G26   30.10R                  
MAYPORT NAS    CLOUDY    64  59  83 NE13      30.14R                  
JACKSONVILLE   PTSUNNY   72  60  66 N9        30.12R                  
JAX NAS        FAIR      72  61  68 NE13      30.13R                  
JAX CECIL      PTSUNNY   77  64  65 N14       30.11R                  
FERNANDINA BEA CLOUDY    65  58  79 NE10      30.14R                  
ST AUGUSTINE   FAIR      64  59  83 N15G22    30.15R                  
PALM COAST     MOSUNNY   72  61  68 N18G28    30.10R                  

STATION/POSITION SKY/WX   TEMP    WIND        PRES    WAVE   SWELL
                          AIR SEA DIR/SP/G            HT/PER HT/PER
                          (F)     (DEG/KT/KT) (MB)    (FT/S) (FT/S)
SHELL POINT      NOT AVBL
KEATON BEACH               68      20/ 10/ 12 1019.9R
CEDAR KEY                  68     330/  1/  2 1019.6R
FERNANDINA                 66 62   30/  8/ 12 1021.2R
30.7N   81.3W                 60                N/A     2/ 9
MAYPORT                    63 63   40/ 12/ 13 1020.5R
31.4N   80.9W              59 58  330/  8/  8 1020.9R   2/ 8   2/ 8
ST AUGUSTINE                  64   10/ 18/ 21 1020.5R

$$
FLZ040-043>046-052-053-057-058-063-144-182300-
INTERIOR CENTRAL FLORIDA
  
CITY           SKY/WX    TMP DP  RH WIND       PRES   REMARKS
OCALA          FAIR      84  68  58 W8        30.09R                  
LEESBURG       PTSUNNY   82  68  62 S7        30.08R                  
SANFORD        FAIR      85  67  54 S8        30.07S                  
ORLANDO EXEC   PTSUNNY   85  66  53 SW6       30.08R                  
ORLANDO INTL   PTSUNNY   84  66  54 CALM      30.08S                  
KISSIMMEE      PTSUNNY   83  68  60 CALM      30.10R                  
WINTER HAVEN   PTSUNNY   86  68  54 CALM      30.10R                  
LAKELAND       MOSUNNY   84  68  58 W12       30.09R                  
SEBRING        CLOUDY    86  67  54 SW6       30.08R                  
OKEECHOBEE     CLOUDY    82  70  65 CALM      30.07R                  

$$
FLZ041-047-054-059-064-141-147-182300-
EAST CENTRAL FLORIDA
  
CITY           SKY/WX    TMP DP  RH WIND       PRES   REMARKS
ORMOND BEACH   PTSUNNY   84  66  54 W3        30.07R                  
DAYTONA BEACH  PTSUNNY   85  70  60 S7        30.07R                  
DELAND         PTSUNNY   84  66  54 S8        30.08R                  
NEW SMYRNA BEA MOSUNNY   84  70  61 SE9       30.09R                  
JFK SPACE CTR  FAIR      82  72  69 E8        30.08R                  
TITUSVILLE     MOSUNNY   86  68  54 W6        30.09R                  
CAPE CANAVERAL FAIR      77  71  81 SE7       30.08R                  
PATRICK AFB    FAIR      76  74  93 SE9       30.09R                  
MELBOURNE      FAIR      81  71  71 SE12      30.08S                  
VERO BEACH     FAIR      80  72  76 SE12      30.09R                  
FT PIERCE      PTSUNNY   82  72  71 SE13      30.08R                  
STUART         MOSUNNY   82  73  74 SE12      30.09R                  

STATION/POSITION SKY/WX   TEMP    WIND        PRES    WAVE   SWELL
                          AIR SEA DIR/SP/G            HT/PER HT/PER
                          (F)     (DEG/KT/KT) (MB)    (FT/S) (FT/S)
28.5N   80.2W              74     120/  8/  8 1019.5
28.9N   78.5W              76 76  170/  8/ 12 1020.5R   3/ 8   2/ 8
TRIDENT PIER               73 67  140/  5/ 10 1020.0R
28.4N   80.5W                 68                N/A     2/ 9

$$
FLZ050-056-061-142-242-148-248-149-249-151-251-155-255-
160-260-182300-
WEST CENTRAL FLORIDA
  
CITY           SKY/WX    TMP DP  RH WIND       PRES   REMARKS
CRYSTAL RIVER  FAIR      79  72  78 W10       30.10R                  
INVERNESS      FAIR      84  70  61 SW5       30.09R                  
BROOKSVILLE    PTSUNNY   85  69  58 W15       30.09R                  
CLEARWATER AIR FAIR      79  70  73 SW9       30.09R                  
ST PETE CLEARW FAIR      81  69  67 SW14      30.09R                  
TAMPA INTL     FAIR      80  71  74 S8        30.09R                  
TAMPA EXEC     FAIR      81  70  69 SW7       30.09S                  
PLANT CITY     FAIR      84  68  58 W8        30.11R                  
MACDILL AFB    FAIR      78  71  79 SW12      30.08S                  
PETER O KNIGHT CLOUDY    81  72  74 SW8       30.09S                  
ST PETERSBURG  FAIR      79  71  76 SW10      30.07R                  
SARASOTA       FAIR      81  72  74 S9        30.07S                  
VENICE         FAIR      81  73  78 S10       30.10R                  

STATION/POSITION SKY/WX   TEMP    WIND        PRES    WAVE   SWELL
                          AIR SEA DIR/SP/G            HT/PER HT/PER
                          (F)     (DEG/KT/KT) (MB)    (FT/S) (FT/S)
27.3N   84.2W                 72                N/A     4/ 8
CLEARWATER BEACH           73 69  190/ 11/ 12 1019.0R
MIDDLE TAMPA BAY           73     240/  7/ 10 1019.0R
VENICE                     73 68  170/  7/  8   N/A

$$
FLZ066-069-070-075>078-162-262-165-265-182300-
SOUTHWEST FLORIDA AND KEYS
  
CITY           SKY/WX    TMP DP  RH WIND       PRES   REMARKS
PUNTA GORDA    FAIR      81  68  64 W10       30.10S                  
FT MYERS       FAIR      82  69  64 SW8       30.08S                  
SOUTHWEST INTL FAIR      81  69  67 SW10      30.09R                  
NAPLES         FAIR      82  70  66 SW10      30.09R                  
MARCO ISLAND   FAIR     N/A N/A N/A S7        30.10R                  
IMMOKALEE      FAIR      86  66  51 SW8       30.06R                  
MARATHON         N/A    N/A N/A N/A MISG      30.09R                  
KEY WEST NAS   FAIR      83  74  74 E10       30.07S                  
KEY WEST INTL  FAIR      82  75  79 E10       30.08R                  

STATION/POSITION SKY/WX   TEMP    WIND        PRES    WAVE   SWELL
                          AIR SEA DIR/SP/G            HT/PER HT/PER
                          (F)     (DEG/KT/KT) (MB)    (FT/S) (FT/S)
NAPLES                     79 75  160/  4/  4 1019.1R
26.0N   85.6W              80 80  140/ 10/ 12 1016.9
DRY TORTUGAS               78      90/  9/  9 1018.1R
SAND KEY                   78                 1018.3R
SOMBRERO KEY               78                 1018.2R
LONG KEY                   80 79  120/  5/  6 1018.9R
MOLASSES REEF                     150/  5       N/A

$$
FLZ067-068-071>074-168-172>174-182300-
SOUTHEAST FLORIDA 
  
CITY           SKY/WX    TMP DP  RH WIND       PRES   REMARKS
W PALM BEACH   PTSUNNY   80  72  76 SE15      30.09R                  
FT LAUDER-EXEC FAIR      83  75  77 SE12      30.08R                  
FT LAUDERDALE  FAIR      82  75  79 S13       30.08R                  
POMPANO BEACH  FAIR      81  73  76 SE13      30.09R                  
PEMBROKE PINES FAIR      83  71  67 SE12      30.10R                  
OPA LOCKA      PTSUNNY   84  72  67 S13       30.09R                  
MIAMI          FAIR      81  74  79 SE10      30.09R                  
WEST KENDALL   FAIR      84  72  67 SE10      30.09R                  
HOMESTEAD      FAIR      83  73  73 SE9       30.09R                  

STATION/POSITION SKY/WX   TEMP    WIND        PRES    WAVE   SWELL
                          AIR SEA DIR/SP/G            HT/PER HT/PER
                          (F)     (DEG/KT/KT) (MB)    (FT/S) (FT/S)
PORT EVERGLADES            80     150/  8/ 11 1018.8R
VIRGINIA KEY               80 78  140/  9/ 12 1018.6R
LAKE WORTH                 78 78  190/ 16/ 17 1020.1R
FOWEY ROCKS                78 77  150/ 11/ 12 1020.0R
SETTLEMENT POINT           78     180/  9/ 11 1020.1R

$$